Regional Weather Roundup
Issued by NWS

Home | Current Version | Previous Version | Graphics & Text | Print | Product List | Glossary On
Versions: 1 2 3 4 5 6 7 8 9 10 11 12 13 14 15 16 17 18 19 20 21 22 23 24 25 26 27 28 29 30 31 32 33 34 35 36 37 38 39 40 41 42 43 44 45 46 47 48 49 50
732
ASUS43 KOAX 311710
RWRNE

WEATHER ROUNDUP FOR NEBRASKA
NATIONAL WEATHER SERVICE OMAHA NE
1200 PM CDT WED AUG 31 2016

NOTES: SATELLITE DATA IS BEING USED TO AUGMENT CLOUD COVER ABOVE
       12000 FEET.
       "FAIR" INDICATES FEW OR NO CLOUDS BELOW 12,000 FEET WITH NO
       SIGNIFICANT WEATHER AND/OR OBSTRUCTIONS TO VISIBILITY.

  * THESE STATIONS DO NOT REPORT WEATHER SUCH AS RAIN...SNOW OR FOG.

NEZ001>004-019>022-054>056-311800-
NEBRASKA PANHANDLE

CITY           SKY/WX    TMP DP  RH WIND       PRES   REMARKS
SCOTTSBLUFF    PTSUNNY   72  60  66 E12       30.27S
ALLIANCE       PTSUNNY   72  61  68 SE14      30.27F
CHADRON        MOSUNNY   74  59  59 S15       30.24F
KIMBALL        PTSUNNY   70  60  70 SE10      30.30S
SIDNEY         PTSUNNY   69  60  73 S10       30.30S
$$

NEZ057>060-069>072-079>082-311800-
SOUTHWEST NEBRASKA

CITY           SKY/WX    TMP DP  RH WIND       PRES   REMARKS
NORTH PLATTE   MOSUNNY   75  63  66 SE10      30.25F
IMPERIAL       PTSUNNY   70  64  81 SE13      30.25S
LEXINGTON      CLOUDY    73  65  75 E8        30.25S
MCCOOK         CLOUDY    74  64  71 E12       30.24R
OGALLALA       CLOUDY    73  64  72 SE7       30.27S
$$

NEZ005>010-023>029-035>040-094-311800-
NORTH CENTRAL NEBRASKA

CITY           SKY/WX    TMP DP  RH WIND       PRES   REMARKS
VALENTINE      SUNNY     78  61  55 SE13      30.26F
AINSWORTH      PTSUNNY   75  65  71 E7        30.27F
BROKEN BOW     CLOUDY    71  65  81 E9        30.26S
O`NEILL        MOSUNNY   77  66  68 E6        30.26S
ORD            PTSUNNY   76  64  66 E7        30.24S
THEDFORD       PTSUNNY   73  64  73 E9        30.29R
$$

NEZ041-046>049-061>064-073>077-083>087-311800-
SOUTH CENTRAL NEBRASKA

CITY           SKY/WX    TMP DP  RH WIND       PRES   REMARKS
GRAND ISLAND   CLOUDY    75  67  76 E12       30.24S
AURORA         CLOUDY    73  70  88 E6        30.24R
HASTINGS       CLOUDY    75  67  76 E8        30.24R
HEBRON         CLOUDY    73  69  86 E6        30.21R
HOLDREGE       CLOUDY    70  64  82 E10       30.25R
KEARNEY *      CLOUDY    72  66  83 E7        30.24R
YORK           MOSUNNY   75  66  73 NE10      30.23R
$$

NEZ011>018-030>034-042>045-311800-
NORTHEAST NEBRASKA

CITY           SKY/WX    TMP DP  RH WIND       PRES   REMARKS
NORFOLK        SUNNY     77  55  46 E5        30.23S
ALBION         PTSUNNY   75  64  67 E8        30.25S
BLAIR          SUNNY     75  62  63 NE5       30.21S
FREMONT        SUNNY     75  60  58 NE6       30.21F
TEKAMAH        SUNNY     77  62  59 E5        30.21S
WAYNE          SUNNY     75  61  62 E3        30.24S
$$

NEZ050>053-065>068-078-088>093-311800-
SOUTHEAST NEBRASKA

CITY           SKY/WX    TMP DP  RH WIND       PRES   REMARKS
LINCOLN        MOSUNNY   78  62  57 NE9       30.21S
OMAHA EPPLEY   MOSUNNY   77  60  55 E8        30.20S
BEATRICE       CLOUDY    75  67  75 NE8       30.20S
FALLS CITY     CLOUDY    75  68  78 N5        30.17R
NEBRASKA CITY  MOSUNNY   74  60  60 NE7       30.19F
PLATTSMOUTH    SUNNY     77  60  55 NE8       30.20S
$$

NEZ044-045-051>053-067-311800-
OMAHA AREA

CITY           SKY/WX    TMP DP  RH WIND       PRES   REMARKS
OMAHA EPPLEY   MOSUNNY   77  60  55 E8        30.20S
BLAIR          SUNNY     75  62  63 NE5       30.21S
FREMONT        SUNNY     75  60  58 NE6       30.21F
MILLARD        SUNNY    N/A N/A N/A N3        30.20S
OFFUTT AFB     SUNNY     78  61  56 VRB6      30.19S
PLATTSMOUTH    SUNNY     77  60  55 NE8       30.20S
WAHOO          FAIR      75  60  60 NE6       30.21S
$$




USA.gov is the U.S. government's official web portal to all federal, state and local government web resources and services.